Westminster, MD

10:15 AM EDT on March 25, 2017 (GMT -0400)
Carroll County Regional-Poage

Weather History for KDMW - October, 2013

Change the Weather History Date:

Tuesday, October 29, 2013

  Actual Average (KTHV) Record (KTHV)
Temperature  
Mean Temperature 48 °F -  
Max Temperature 60 °F 0 °F 73 °F (1999)
Min Temperature 37 °F - 23 °F (2001)
Degree Days  
Heating Degree Days 16    
Moisture  
Dew Point 38 °F    
Average Humidity 71    
Maximum Humidity 87    
Minimum Humidity 42    
Precipitation  
Precipitation 0.00 in - - ()
Sea Level Pressure  
Sea Level Pressure 30.34 in    
Wind  
Wind Speed 1 mph (NE)    
Max Wind Speed 6 mph    
Max Gust Speed -    
Visibility 10 miles    
Events      
Averages and records for this station are not official NWS values.
T = Trace of Precipitation, MM = Missing Value Source: NWS Daily Summary

Daily Weather History Graph

Daily Weather History Graph

Search for Another Location

Airport or City:

Trip Planner

Search our weather history database for the weather conditions in past years. The results will help you decide how hot, cold, wet, or windy it might be!

Date:

Astronomy

Oct. 29, 2013 Rise Set
Actual Time 7:33 AM EDT 6:09 PM EDT
Civil Twilight 7:05 AM EDT 6:37 PM EDT
Nautical Twilight 6:33 AM EDT 7:08 PM EDT
Astronomical Twilight 6:02 AM EDT 7:40 PM EDT
Moon 2:22 AM EDT (10/29) 3:21 PM EDT (10/29)
Length of Visible Light 11h 31m
Length of Day
10h 36m
Waning Crescent, 25% of the Moon is Illuminated
Oct 29
Waning Crescent
Nov 3
New
Nov 10
First Quarter
Nov 17
Full
Nov 25
Last Quarter

Hourly Weather History & Observations

Time (EDT) Temp. Windchill Dew Point Humidity Pressure Visibility Wind Dir Wind Speed Gust Speed Precip Events Conditions
12:05 AM 44.6 °F - 37.4 °F 76% 30.30 in 10.0 mi Calm Calm - N/A   Scattered Clouds
12:25 AM 42.8 °F - 37.4 °F 81% 30.30 in 10.0 mi Calm Calm - N/A   Scattered Clouds
12:45 AM 42.8 °F - 37.4 °F 81% 30.30 in 10.0 mi Calm Calm - N/A   Scattered Clouds
1:05 AM 41.0 °F - 37.4 °F 87% 30.30 in 10.0 mi Calm Calm - N/A   Clear
1:25 AM 42.8 °F - 37.4 °F 81% 30.30 in 10.0 mi Calm Calm - N/A   Clear
1:45 AM 42.8 °F - 37.4 °F 81% 30.30 in 10.0 mi Calm Calm - N/A   Clear
2:05 AM 41.0 °F - 37.4 °F 87% 30.31 in 10.0 mi Calm Calm - N/A   Clear
2:25 AM 42.8 °F - 37.4 °F 81% 30.31 in 10.0 mi Calm Calm - N/A   Scattered Clouds
2:45 AM 39.2 °F 35.0 °F 35.6 °F 87% 30.31 in 10.0 mi NNE 5.8 mph - N/A   Clear
3:05 AM 39.2 °F 35.9 °F 35.6 °F 87% 30.32 in 10.0 mi NNE 4.6 mph - N/A   Scattered Clouds
3:25 AM 39.2 °F 35.9 °F 35.6 °F 87% 30.32 in 10.0 mi NNE 4.6 mph - N/A   Scattered Clouds
3:45 AM 42.8 °F 40.1 °F 35.6 °F 76% 30.32 in 10.0 mi NE 4.6 mph - N/A   Scattered Clouds
4:05 AM 42.8 °F 41.1 °F 35.6 °F 76% 30.32 in 10.0 mi ENE 3.5 mph - N/A   Scattered Clouds
4:25 AM 44.6 °F 42.2 °F 35.6 °F 71% 30.32 in 10.0 mi East 4.6 mph - N/A   Mostly Cloudy
4:45 AM 44.6 °F 41.4 °F 35.6 °F 71% 30.32 in 10.0 mi East 5.8 mph - N/A   Scattered Clouds
5:05 AM 44.6 °F 42.2 °F 35.6 °F 71% 30.33 in 10.0 mi ENE 4.6 mph - N/A   Mostly Cloudy
5:45 AM 42.8 °F 41.1 °F 35.6 °F 76% 30.35 in 10.0 mi NNE 3.5 mph - N/A   Clear
6:05 AM 41.0 °F 37.1 °F 35.6 °F 81% 30.36 in 10.0 mi North 5.8 mph - N/A   Clear
6:25 AM 41.0 °F 39.0 °F 35.6 °F 81% 30.36 in 10.0 mi NNE 3.5 mph - N/A   Clear
6:45 AM 39.2 °F 37.0 °F 35.6 °F 87% 30.36 in 10.0 mi NNE 3.5 mph - N/A   Scattered Clouds
7:05 AM 39.2 °F - 35.6 °F 87% 30.36 in 10.0 mi Calm Calm - N/A   Scattered Clouds
7:25 AM 41.0 °F - 35.6 °F 81% 30.36 in 10.0 mi Calm Calm - N/A   Clear
7:45 AM 37.4 °F - 33.8 °F 87% 30.37 in 10.0 mi Calm Calm - N/A   Clear
8:05 AM 39.2 °F - 35.6 °F 87% 30.37 in 10.0 mi Calm Calm - N/A   Clear
8:25 AM 39.2 °F - 35.6 °F 87% 30.37 in 10.0 mi Calm Calm - N/A   Clear
8:45 AM 39.2 °F - 35.6 °F 87% 30.38 in 10.0 mi Calm Calm - N/A   Clear
9:05 AM 42.8 °F - 37.4 °F 81% 30.38 in 10.0 mi Calm Calm - N/A   Clear
9:25 AM 44.6 °F - 37.4 °F 76% 30.39 in 10.0 mi Calm Calm - N/A   Clear
9:45 AM 44.6 °F 43.1 °F 37.4 °F 76% 30.40 in 10.0 mi NNW 3.5 mph - N/A   Clear
10:05 AM 46.4 °F - 39.2 °F 76% 30.39 in 10.0 mi Calm Calm - N/A   Clear
10:25 AM 48.2 °F - 39.2 °F 71% 30.40 in 10.0 mi NNE 4.6 mph - N/A   Clear
10:45 AM 50.0 °F - 39.2 °F 66% 30.40 in 10.0 mi Calm Calm - N/A   Clear
11:05 AM 51.8 °F - 41.0 °F 67% 30.40 in 10.0 mi Calm Calm - N/A   Clear
11:25 AM 51.8 °F - 41.0 °F 67% 30.39 in 10.0 mi Calm Calm - N/A   Clear
11:45 AM 51.8 °F - 41.0 °F 67% 30.39 in 10.0 mi Calm Calm - N/A   Clear
12:05 PM 53.6 °F - 41.0 °F 62% 30.38 in 10.0 mi East 3.5 mph - N/A   Clear
12:25 PM 53.6 °F - 41.0 °F 62% 30.37 in 10.0 mi SE 3.5 mph - N/A   Clear
12:45 PM 53.6 °F - 41.0 °F 62% 30.36 in 10.0 mi West 3.5 mph - N/A   Clear
1:05 PM 55.4 °F - 39.2 °F 54% 30.36 in 10.0 mi Calm Calm - N/A   Clear
1:25 PM 55.4 °F - 37.4 °F 51% 30.36 in 10.0 mi Calm Calm - N/A   Clear
1:45 PM 55.4 °F - 39.2 °F 54% 30.35 in 10.0 mi Calm Calm - N/A   Clear
2:05 PM 57.2 °F - 39.2 °F 51% 30.35 in 10.0 mi Calm Calm - N/A   Clear
2:25 PM 57.2 °F - 37.4 °F 48% 30.34 in 10.0 mi WSW 3.5 mph - N/A   Clear
2:45 PM 57.2 °F - 39.2 °F 51% 30.33 in 10.0 mi NW 3.5 mph - N/A   Clear
3:05 PM 57.2 °F - 37.4 °F 48% 30.33 in 10.0 mi Calm Calm - N/A   Clear
3:25 PM 57.2 °F - 37.4 °F 48% 30.32 in 10.0 mi Calm Calm - N/A   Clear
3:45 PM 57.2 °F - 39.2 °F 51% 30.33 in 10.0 mi Calm Calm - N/A   Clear
4:05 PM 60.8 °F - 37.4 °F 42% 30.33 in 10.0 mi Calm Calm - N/A   Clear
4:25 PM 59.0 °F - 37.4 °F 45% 30.33 in 10.0 mi Calm Calm - N/A   Clear
4:45 PM 59.0 °F - 37.4 °F 45% 30.33 in 10.0 mi Calm Calm - N/A   Clear
5:05 PM 59.0 °F - 37.4 °F 45% 30.32 in 10.0 mi Calm Calm - N/A   Clear
5:25 PM 57.2 °F - 37.4 °F 48% 30.32 in 10.0 mi Calm Calm - N/A   Clear
5:45 PM 57.2 °F - 39.2 °F 51% 30.32 in 10.0 mi Calm Calm - N/A   Clear
6:05 PM 55.4 °F - 39.2 °F 54% 30.32 in 10.0 mi Calm Calm - N/A   Clear
6:25 PM 55.4 °F - 39.2 °F 54% 30.33 in 10.0 mi Calm Calm - N/A   Scattered Clouds
6:45 PM 53.6 °F - 39.2 °F 58% 30.33 in 10.0 mi Calm Calm - N/A   Clear
7:05 PM 51.8 °F - 39.2 °F 62% 30.34 in 10.0 mi NE 3.5 mph - N/A   Clear
7:25 PM 51.8 °F - 41.0 °F 67% 30.34 in 10.0 mi Calm Calm - N/A   Clear
7:45 PM 50.0 °F - 41.0 °F 71% 30.35 in 10.0 mi Calm Calm - N/A   Clear
8:05 PM 50.0 °F - 39.2 °F 66% 30.35 in 10.0 mi Calm Calm - N/A   Scattered Clouds
8:25 PM 48.2 °F - 39.2 °F 71% 30.35 in 10.0 mi Calm Calm - N/A   Clear
8:45 PM 48.2 °F - 42.8 °F 82% 30.35 in 10.0 mi Calm Calm - N/A   Scattered Clouds
9:05 PM 48.2 °F - 41.0 °F 76% 30.34 in 10.0 mi ENE 3.5 mph - N/A   Scattered Clouds
9:25 PM 48.2 °F - 42.8 °F 82% 30.34 in 10.0 mi Calm Calm - N/A   Clear
9:45 PM 48.2 °F - 42.8 °F 82% 30.35 in 10.0 mi Calm Calm - N/A   Clear
10:05 PM 48.2 °F - 42.8 °F 82% 30.36 in 10.0 mi Calm Calm - N/A   Scattered Clouds
10:25 PM 48.2 °F - 42.8 °F 82% 30.35 in 10.0 mi Calm Calm - N/A   Scattered Clouds
10:45 PM 46.4 °F - 42.8 °F 87% 30.35 in 10.0 mi Calm Calm - N/A   Scattered Clouds
11:05 PM 46.4 °F - 42.8 °F 87% 30.35 in 10.0 mi Calm Calm - N/A   Scattered Clouds
11:25 PM 46.4 °F - 42.8 °F 87% 30.34 in 10.0 mi Calm Calm - N/A   Scattered Clouds
11:45 PM 46.4 °F 45.2 °F 42.8 °F 87% 30.34 in 10.0 mi SE 3.5 mph - N/A   Scattered Clouds